Location: ????????
(55.6189°N, 38.3031°E)
Time: 06:08:37
(UTC+00:00)

SL-16 R/B - Pass Details

Date: 24 February 2020
Orbit: 843 x 847 km, 71.0° (Epoch: 07 April)

Event Time Altitude Azimuth Distance (km) Brightness Sun altitude
Exits shadow 01:25:55 75° 293° (WNW) 881 2.1 -26.5°
Maximum altitude 01:26:03 75° 306° (NW) 880 2.1 -26.5°
Drops below altitude 10° 01:31:45 10° 33° (NNE) 2,477 5.3 -25.8°
Sets 01:34:13 0° 35° (NE) 3,415 6.2 -25.5°
